Miscellaneous Local Product
Issued by NWS Hastings, NE

Home | Current Version | Previous Version | Text Only | Print | Product List | Glossary Off
Versions: 1 2 3 4 5 6 7 8 9 10 11 12 13 14 15 16 17 18 19 20 21 22 23 24 25 26 27 28 29 30 31 32 33 34 35 36 37 38 39 40 41 42 43 44 45 46 47 48 49 50

000
AXUS43 KGID 152102
MISGRI

GID CWA HOURLY WEATHER ROUNDUP
NATIONAL WEATHER SERVICE HASTINGS NE
400 PM CDT TUE AUG 15 2017

NOTE: "FAIR" INDICATES FEW OR NO CLOUDS BELOW 12,000 FEET WITH NO
SIGNIFICANT WEATHER AND/OR OBSTRUCTIONS TO VISIBILITY.

...SOUTH CENTRAL NEBRASKA...

CITY           SKY/WX    TMP DP  RH WIND       PRES   REMARKS
GRAND ISLAND   MOSUNNY   89  70  53 S13       29.81F HX  94
HASTINGS       SUNNY     91  63  39 S13G22    29.80F HX  92
KEARNEY        MOSUNNY   89  69  51 SE18      29.79F HX  93
ORD            CLOUDY    82  70  66 E10       29.79F
YORK           MOSUNNY   86  75  70 E10       29.82F HX  95
AURORA         SUNNY     88  68  51 S17       29.81F HX  91
LEXINGTON      MOSUNNY   89  69  52 S10G18    29.79F HX  93
HOLDREGE       MOSUNNY   87  65  48 S8        29.79F
HEBRON         MOSUNNY   91  69  47 S10G22    29.80F HX  95

...NEBRASKA PANHANDLE...

CITY           SKY/WX    TMP DP  RH WIND       PRES   REMARKS
CHADRON        PTSUNNY   83  52  34 VRB3      29.82F
ALLIANCE       SUNNY     80  58  46 VRB3      29.85F
SCOTTSBLUFF    SUNNY     83  57  41 VRB5      29.85F
SIDNEY         PTSUNNY   82  60  47 VRB7      29.88F

...WESTERN AND NORTH CENTRAL NEBRASKA...

CITY           SKY/WX    TMP DP  RH WIND       PRES   REMARKS
VALENTINE      MOSUNNY   78  64  61 E15       29.81F
AINSWORTH      CLOUDY    72  69  88 E9        29.84F
ONEILL         LGT RAIN  65  65 100 E10       29.87R
BROKEN BOW     MOSUNNY   80  71  74 SE6       29.80F
IMPERIAL       MOSUNNY   90  59  35 S21       29.80F
NORTH PLATTE   CLOUDY    85  70  60 SE6       29.80F
MCCOOK         MOSUNNY   92  65  40 S12       29.77F HX  94

...EASTERN NEBRASKA...

CITY           SKY/WX    TMP DP  RH WIND       PRES   REMARKS
NORFOLK        CLOUDY    74  67  78 N23G30    29.90R
SO SIOUX CITY  PTSUNNY   74  70  87 E12       29.86F
TEKAMAH        PTSUNNY   85  72  65 VRB7      29.83F HX  91
COLUMBUS       PTSUNNY   82  73  74 VRB3      29.85R
ALBION         CLOUDY    80  72  77 E6        29.86R
OMAHA EPPLEY   MOSUNNY   87  70  56 SE16      29.83S HX  92
OFFUTT AFB     MOSUNNY   87  71  59 E13       29.83R HX  93
MILLARD        SUNNY     87  73  62 SE16      29.83S HX  94
LINCOLN        SUNNY     87  73  62 E6        29.82S HX  94
NEBRASKA CITY  SUNNY     88  70  54 S14G21    29.83S HX  93
BEATRICE       MOSUNNY   92  67  43 S15G21    29.80F HX  95
FALLS CITY     MOSUNNY   88  70  55 SE15G21   29.81F HX  93

...NORTHERN KANSAS...

CITY           SKY/WX    TMP DP  RH WIND       PRES   REMARKS
GOODLAND       MOSUNNY   84  63  49 S17       29.82F
HILL CITY      MOSUNNY   93  61  34 S10G21    29.77F HX  93
NORTON         CLEAR     93  55  27 SE16G22   29.77F HX  91
PHILLIPSBURG   MOSUNNY   93  63  36 SE13G18   29.77S HX  94
SMITH CENTER   MOSUNNY   90  64  43 SE14G22   29.78F HX  91
HAYS           PTSUNNY   91  67  44 S20G28    29.77F HX  94
RUSSELL        MOSUNNY   93  68  43 S17G25    29.77F HX  97
CONCORDIA      MOSUNNY   89  69  51 SE12G22   29.79F HX  93
SALINA         SUNNY     95  63  34 S17G24    29.78F HX  96
TOPEKA         MOSUNNY   88  73  61 SE10      29.83F HX  95



USA.gov is the U.S. government's official web portal to all federal, state and local government web resources and services.